TimeEDT,TemperatureF,Dew PointF,Humidity,Sea Level PressureIn,VisibilityMPH,Wind Direction,Wind SpeedMPH,Gust SpeedMPH,PrecipitationIn,Events,Conditions,WindDirDegrees,DateUTC
12:52 AM,72.0,70.0,93,29.91,7.0,Calm,Calm,-,N/A,Fog,Patches of Fog,0,2013-09-02 04:52:00
1:52 AM,72.0,70.0,93,29.91,8.0,South,4.6,-,N/A,,Partly Cloudy,190,2013-09-02 05:52:00
2:52 AM,71.1,70.0,96,29.91,8.0,SW,3.5,-,N/A,,Scattered Clouds,220,2013-09-02 06:52:00
3:52 AM,72.0,70.0,93,29.90,8.0,WSW,3.5,-,N/A,,Scattered Clouds,250,2013-09-02 07:52:00
4:52 AM,72.0,70.0,93,29.88,8.0,SW,3.5,-,N/A,,Scattered Clouds,220,2013-09-02 08:52:00
5:52 AM,72.0,70.0,93,29.89,8.0,West,5.8,-,N/A,,Scattered Clouds,260,2013-09-02 09:52:00
6:12 AM,73.4,71.6,94,29.93,7.0,West,11.5,-,N/A,Thunderstorm,Thunderstorm,280,2013-09-02 10:12:00
6:52 AM,73.0,70.0,90,29.92,6.0,West,8.1,-,0.00,Rain-Thunderstorm,Light Thunderstorms and Rain,280,2013-09-02 10:52:00
7:52 AM,71.1,69.1,93,29.96,5.0,West,11.5,-,0.17,Rain-Thunderstorm,Heavy Thunderstorms and Rain,280,2013-09-02 11:52:00
8:04 AM,69.8,68.0,94,29.98,2.5,WNW,6.9,-,0.15,Rain-Thunderstorm,Heavy Thunderstorms and Rain,300,2013-09-02 12:04:00
8:14 AM,69.8,68.0,94,29.99,4.0,West,13.8,-,0.20,Rain,Light Rain,280,2013-09-02 12:14:00
8:52 AM,70.0,68.0,93,29.96,5.0,WNW,12.7,-,0.28,Rain,Rain,300,2013-09-02 12:52:00
9:52 AM,70.0,66.9,90,29.96,10.0,NW,9.2,-,0.03,Rain,Light Rain,320,2013-09-02 13:52:00
10:52 AM,70.0,69.1,97,29.97,9.0,NW,11.5,-,0.00,Rain,Light Rain,310,2013-09-02 14:52:00
11:02 AM,69.8,69.8,100,30.00,10.0,WNW,10.4,-,0.00,Rain,Light Rain,290,2013-09-02 15:02:00
11:52 AM,72.0,69.1,91,29.99,10.0,NW,10.4,-,0.00,,Overcast,310,2013-09-02 15:52:00
12:42 PM,73.4,69.8,88,30.00,10.0,WNW,10.4,-,N/A,,Overcast,300,2013-09-02 16:42:00
12:52 PM,75.0,69.1,82,29.97,10.0,NW,11.5,-,N/A,,Overcast,320,2013-09-02 16:52:00
1:52 PM,75.9,68.0,76,29.96,10.0,WNW,4.6,-,N/A,,Overcast,300,2013-09-02 17:52:00
2:52 PM,81.0,66.9,62,29.95,10.0,WNW,8.1,-,N/A,,Mostly Cloudy,300,2013-09-02 18:52:00
3:52 PM,81.0,66.0,60,29.91,10.0,NNW,6.9,-,N/A,,Mostly Cloudy,330,2013-09-02 19:52:00
4:52 PM,82.9,68.0,60,29.90,10.0,West,9.2,-,N/A,,Mostly Cloudy,260,2013-09-02 20:52:00
5:52 PM,82.0,68.0,62,29.89,10.0,Variable,3.5,-,N/A,,Mostly Cloudy,0,2013-09-02 21:52:00
6:52 PM,82.0,69.1,65,29.89,10.0,West,4.6,-,N/A,,Mostly Cloudy,280,2013-09-02 22:52:00
7:52 PM,79.0,69.1,72,29.90,10.0,Calm,Calm,-,N/A,,Mostly Cloudy,0,2013-09-02 23:52:00
8:52 PM,77.0,70.0,79,29.90,10.0,Calm,Calm,-,N/A,,Mostly Cloudy,0,2013-09-03 00:52:00
9:52 PM,75.0,69.1,82,29.91,10.0,Calm,Calm,-,N/A,,Mostly Cloudy,0,2013-09-03 01:52:00
10:52 PM,75.9,69.1,79,29.92,10.0,WSW,3.5,-,N/A,,Mostly Cloudy,250,2013-09-03 02:52:00
11:52 PM,75.0,70.0,84,29.91,10.0,SW,3.5,-,N/A,,Mostly Cloudy,230,2013-09-03 03:52:00